Date,TemperatureHighF,TemperatureAvgF,TemperatureLowF,DewpointHighF,DewpointAvgF,DewpointLowF,HumidityHigh,HumidityAvg,HumidityLow,PressureMaxIn,PressureMinIn,WindSpeedMaxMPH,WindSpeedAvgMPH,GustSpeedMaxMPH,PrecipitationSumIn
2013-1-1,30.6,22.7,9.5,27.4,14.8,2.8,88,72,57,29.89,29.62,13,2,17,0.00
2013-1-2,22.4,8.8,-1.8,12.4,1.8,-4.7,92,73,54,30.09,29.87,7,1,12,0.00
2013-1-3,18.6,5.0,-8.5,5.6,-1.6,-10.8,86,73,51,30.12,29.97,7,0,0,0.00
2013-1-4,33.6,20.7,-0.9,26.0,15.8,-3.7,94,81,64,29.97,29.75,12,1,17,0.00
2013-1-5,32.0,26.1,12.5,27.0,19.0,9.6,89,75,56,30.24,29.76,12,1,13,0.00
2013-1-6,32.1,22.4,11.0,25.7,19.4,8.7,93,88,76,30.21,29.92,5,0,0,0.00
2013-1-7,29.0,21.3,5.5,25.4,16.7,3.0,97,83,59,30.38,29.93,10,1,0,0.00
2013-1-8,39.2,20.0,2.3,27.6,15.5,-0.2,96,84,57,30.37,30.22,9,1,13,0.00
2013-1-9,35.1,25.4,12.4,29.1,22.3,10.5,94,88,74,30.41,29.92,9,0,0,0.00
2013-1-10,40.1,33.9,23.8,33.5,27.6,21.8,94,78,61,30.52,29.94,10,2,16,0.04
2013-1-11,36.1,27.6,16.3,31.4,23.6,14.7,97,86,63,30.51,30.23,4,0,0,0.12
2013-1-12,37.6,33.6,32.1,37.2,33.2,31.3,99,98,97,30.23,30.11,2,0,0,0.06
2013-1-13,38.6,34.7,32.8,38.5,34.5,32.6,100,99,99,30.14,29.95,3,0,0,0.01
2013-1-14,51.7,37.3,29.9,48.6,35.2,28.4,100,93,65,30.22,29.84,8,1,0,0.01
2013-1-15,36.9,30.5,24.8,29.3,25.5,23.0,96,82,58,30.30,30.21,7,0,0,0.00
2013-1-16,29.2,27.9,26.5,27.9,26.1,23.8,97,93,83,30.25,29.77,4,0,0,0.00
2013-1-17,35.8,26.5,17.2,31.7,21.5,5.4,98,82,58,30.11,29.77,10,1,12,0.00
2013-1-18,17.2,9.9,0.8,6.5,-1.0,-7.3,89,62,42,30.40,30.06,12,1,13,0.00
2013-1-19,33.9,23.6,3.0,26.3,18.3,0.5,93,80,63,30.34,29.84,3,0,0,0.00
2013-1-20,45.3,31.3,21.9,33.8,22.2,5.3,98,71,45,29.86,29.46,22,3,22,0.00
2013-1-21,23.5,18.7,12.2,16.2,7.0,1.4,92,61,42,30.04,29.80,13,2,13,0.00
2013-1-22,21.6,13.6,3.1,15.1,7.1,-3.9,92,76,48,30.04,29.77,11,1,17,0.00
2013-1-23,3.7,-0.0,-5.8,-3.7,-10.1,-13.3,82,59,43,30.12,30.02,10,2,14,0.00
2013-1-24,9.7,2.5,-5.0,-5.3,-9.6,-14.1,63,54,40,30.19,30.01,14,3,14,0.00
2013-1-25,16.7,9.3,2.6,1.5,-2.8,-6.2,69,57,41,30.25,30.06,13,2,14,0.00
2013-1-26,19.4,11.5,0.4,4.2,0.8,-2.7,88,63,42,30.17,30.00,7,1,0,0.00
2013-1-27,22.0,14.2,9.2,6.3,1.1,-3.4,68,56,43,30.43,30.16,11,2,13,0.00
2013-1-28,23.2,15.5,6.2,17.7,8.6,-0.3,92,75,38,30.43,30.06,3,0,0,0.00
2013-1-29,31.8,23.6,8.1,30.4,21.2,5.5,97,90,79,30.20,30.06,4,0,0,0.00
2013-1-30,37.9,33.3,31.2,37.8,32.9,30.4,100,99,97,30.15,29.40,4,0,0,0.36
2013-1-31,55.5,40.7,25.7,55.5,34.4,13.6,100,80,51,29.47,28.82,22,4,26,0.56